TimeCDT,TemperatureF,Dew PointF,Humidity,Sea Level PressureIn,VisibilityMPH,Wind Direction,Wind SpeedMPH,Gust SpeedMPH,PrecipitationIn,Events,Conditions,WindDirDegrees,DateUTC
12:53 AM,52.0,51.1,97,29.96,10.0,Calm,Calm,-,N/A,,Clear,0,2013-05-08 05:53:00
1:53 AM,52.0,51.1,97,29.94,10.0,Calm,Calm,-,N/A,,Clear,0,2013-05-08 06:53:00
2:53 AM,55.0,52.0,89,29.92,10.0,Calm,Calm,-,N/A,,Clear,0,2013-05-08 07:53:00
3:53 AM,59.0,52.0,78,29.90,10.0,South,3.5,-,N/A,,Clear,190,2013-05-08 08:53:00
4:53 AM,57.9,52.0,81,29.92,10.0,East,3.5,-,N/A,,Clear,100,2013-05-08 09:53:00
5:53 AM,55.9,53.1,90,29.93,10.0,Calm,Calm,-,N/A,,Partly Cloudy,0,2013-05-08 10:53:00
6:53 AM,60.1,53.1,78,30.00,10.0,North,6.9,-,N/A,,Overcast,360,2013-05-08 11:53:00
7:53 AM,59.0,55.9,90,30.00,10.0,ENE,3.5,-,0.02,,Overcast,70,2013-05-08 12:53:00
8:53 AM,61.0,57.9,90,30.01,10.0,East,8.1,-,0.01,,Scattered Clouds,90,2013-05-08 13:53:00
9:53 AM,60.1,59.0,96,30.04,5.0,Calm,Calm,-,0.03,Rain,Light Rain,0,2013-05-08 14:53:00
10:53 AM,63.0,60.1,90,30.04,10.0,Calm,Calm,-,0.02,,Overcast,0,2013-05-08 15:53:00
11:53 AM,68.0,61.0,78,29.99,10.0,East,10.4,-,N/A,,Partly Cloudy,80,2013-05-08 16:53:00
12:53 PM,72.0,59.0,64,29.94,10.0,SSE,18.4,25.3,N/A,,Clear,160,2013-05-08 17:53:00
1:53 PM,75.9,59.0,56,29.93,10.0,South,18.4,26.5,N/A,,Clear,170,2013-05-08 18:53:00
2:53 PM,80.1,62.1,54,29.90,10.0,South,12.7,20.7,N/A,,Clear,170,2013-05-08 19:53:00
3:53 PM,82.0,59.0,45,29.86,10.0,South,15.0,26.5,N/A,,Clear,170,2013-05-08 20:53:00
4:53 PM,82.0,60.1,47,29.84,10.0,SSE,13.8,26.5,N/A,,Clear,160,2013-05-08 21:53:00
5:53 PM,79.0,60.1,52,29.83,10.0,SSE,11.5,21.9,N/A,,Clear,160,2013-05-08 22:53:00
6:53 PM,78.1,57.9,50,29.83,10.0,South,9.2,19.6,N/A,,Clear,170,2013-05-08 23:53:00
7:53 PM,75.0,57.0,53,29.82,10.0,SSE,9.2,-,N/A,,Clear,160,2013-05-09 00:53:00
8:53 PM,73.9,52.0,46,29.84,10.0,South,8.1,-,N/A,,Clear,180,2013-05-09 01:53:00
9:53 PM,73.0,51.1,46,29.88,10.0,South,9.2,-,N/A,,Clear,180,2013-05-09 02:53:00
10:53 PM,70.0,54.0,57,29.91,10.0,SW,4.6,-,N/A,,Clear,220,2013-05-09 03:53:00
11:53 PM,66.9,61.0,81,29.90,10.0,SW,10.4,-,0.01,Rain,Light Rain,220,2013-05-09 04:53:00